Orbital Elements at Epoch 2459200.5 (2020-Dec-17.0) TDB
Reference: JPL 24 (heliocentric ecliptic J2000)
Element | Value | Uncertainty (1-sigma) | Units |
e | .1982251519880035 | 3.122e-08 | |
a | 2.430094355644862 | 8.6269e-09 | au |
q | 1.94838853265197 | 7.6047e-08 | au |
i | 11.86164553207051 | 3.7039e-06 | deg |
node | 218.8789132585645 | 2.2811e-05 | deg |
peri | 182.8899189492786 | 2.6531e-05 | deg |
M | 168.4852890483274 | 1.4987e-05 | deg |
tp | 2458552.921206260251 (2019-Mar-10.42120626) | 5.5587e-05 | TDB |
period | 1383.671933989681 3.79 | 7.3681e-06 2.017e-08 | d yr |
n | .2601772798570654 | 1.3855e-09 | deg/d |
Q | 2.911800178637754 | 1.0337e-08 | au |
|
| | Orbit Determination Parameters
Additional Information
|